Total_Precipitation_Accumulation
0.08 0.08 0.09 0.07 0.08 0.09 0.11 0.16 0.22 0.19 0.11 0.06 0.05 0.08 0.16 0.22 0.25 0.28 0.26 0.13 0.08 0.06 0.06 0.08 0.10 0.14 0.17 0.19 0.20 0.21 0.19 0.18 0.21 0.29 0.39 0.49 0.54 0.57
0.10 0.10 0.10 0.09 0.11 0.12 0.13 0.15 0.22 0.27 0.23 0.11 0.07 0.10 0.18 0.22 0.29 0.30 0.27 0.23 0.16 0.11 0.10 0.21 0.30 0.30 0.30 0.28 0.25 0.26 0.27 0.26 0.25 0.28 0.34 0.42 0.52 0.61
0.08 0.09 0.10 0.10 0.12 0.12 0.15 0.19 0.23 0.30 0.31 0.15 0.10 0.15 0.23 0.28 0.32 0.33 0.30 0.27 0.23 0.22 0.17 0.25 0.50 0.69 0.61 0.49 0.40 0.35 0.34 0.35 0.34 0.35 0.40 0.45 0.48 0.54
0.09 0.10 0.09 0.09 0.11 0.12 0.15 0.17 0.20 0.25 0.32 0.25 0.17 0.20 0.26 0.34 0.41 0.42 0.38 0.33 0.30 0.34 0.30 0.29 0.46 0.86 0.95 0.72 0.61 0.52 0.44 0.43 0.43 0.44 0.47 0.47 0.46 0.49
0.09 0.10 0.10 0.11 0.12 0.14 0.17 0.19 0.21 0.24 0.33 0.39 0.31 0.27 0.31 0.40 0.51 0.50 0.41 0.39 0.32 0.32 0.34 0.37 0.49 1.02 1.37 1.15 0.88 0.78 0.63 0.55 0.49 0.50 0.54 0.54 0.48 0.43
0.07 0.10 0.11 0.14 0.17 0.18 0.19 0.20 0.26 0.30 0.31 0.35 0.33 0.32 0.36 0.43 0.52 0.58 0.47 0.40 0.33 0.25 0.31 0.39 0.53 0.99 1.55 1.75 1.40 1.12 0.91 0.74 0.61 0.53 0.51 0.49 0.44 0.37
0.07 0.09 0.10 0.13 0.17 0.19 0.20 0.25 0.33 0.38 0.35 0.34 0.33 0.34 0.39 0.46 0.48 0.48 0.44 0.37 0.26 0.23 0.25 0.32 0.55 1.17 1.72 2.05 1.95 1.44 1.06 0.86 0.70 0.59 0.53 0.47 0.42 0.36
0.10 0.09 0.06 0.07 0.09 0.13 0.20 0.26 0.32 0.38 0.40 0.41 0.39 0.32 0.32 0.37 0.39 0.43 0.40 0.37 0.28 0.20 0.19 0.32 0.67 1.40 1.97 2.26 2.24 1.64 1.11 0.90 0.80 0.71 0.65 0.58 0.50 0.42
0.12 0.09 0.06 0.04 0.07 0.11 0.15 0.19 0.24 0.34 0.45 0.50 0.47 0.33 0.34 0.40 0.45 0.47 0.36 0.35 0.35 0.23 0.20 0.37 0.78 1.36 1.93 2.43 2.39 1.76 1.27 1.02 0.92 0.84 0.77 0.68 0.57 0.46
0.08 0.07 0.08 0.08 0.10 0.13 0.14 0.19 0.29 0.36 0.41 0.43 0.46 0.46 0.50 0.47 0.40 0.37 0.33 0.37 0.34 0.19 0.16 0.39 0.80 1.30 1.78 2.17 2.24 1.74 1.32 1.10 0.98 0.88 0.77 0.67 0.58 0.49
0.04 0.06 0.08 0.11 0.12 0.18 0.25 0.34 0.50 0.64 0.64 0.62 0.64 0.72 0.74 0.58 0.38 0.32 0.35 0.36 0.29 0.18 0.17 0.36 0.70 1.06 1.44 1.73 1.78 1.60 1.31 1.13 0.98 0.84 0.72 0.60 0.52 0.47
0.03 0.05 0.10 0.16 0.17 0.28 0.36 0.49 0.67 0.81 0.71 0.64 0.67 0.77 0.69 0.59 0.55 0.48 0.41 0.32 0.23 0.19 0.20 0.34 0.54 0.72 1.13 1.42 1.30 1.12 1.06 1.09 1.02 0.90 0.75 0.59 0.43 0.33
0.07 0.11 0.16 0.24 0.24 0.36 0.52 0.62 0.84 0.93 0.77 0.59 0.52 0.52 0.52 0.50 0.48 0.48 0.38 0.26 0.19 0.17 0.21 0.30 0.46 0.58 0.76 1.06 1.18 1.08 0.89 0.85 0.85 0.91 0.90 0.73 0.49 0.34
0.13 0.22 0.26 0.29 0.32 0.49 0.62 0.80 1.04 1.10 0.78 0.52 0.36 0.31 0.33 0.37 0.38 0.33 0.25 0.18 0.15 0.17 0.21 0.27 0.40 0.55 0.56 0.62 0.91 1.02 0.95 0.92 0.83 0.80 0.83 0.79 0.64 0.54
0.17 0.33 0.36 0.34 0.49 0.70 0.89 1.03 1.14 1.04 0.74 0.46 0.32 0.26 0.23 0.24 0.27 0.27 0.23 0.17 0.15 0.17 0.20 0.24 0.32 0.45 0.44 0.44 0.62 0.72 0.88 1.07 0.95 0.85 0.77 0.67 0.59 0.52
0.15 0.30 0.42 0.47 0.63 0.85 1.02 1.08 1.07 0.97 0.74 0.48 0.35 0.30 0.26 0.25 0.26 0.24 0.21 0.18 0.18 0.24 0.25 0.25 0.30 0.36 0.42 0.43 0.47 0.55 0.65 0.98 1.03 0.83 0.72 0.68 0.62 0.54
0.16 0.21 0.29 0.42 0.60 0.77 0.87 0.90 0.86 0.80 0.70 0.51 0.39 0.34 0.32 0.29 0.29 0.25 0.21 0.18 0.19 0.23 0.26 0.29 0.32 0.34 0.37 0.39 0.44 0.52 0.61 0.76 0.82 0.66 0.53 0.57 0.61 0.56
0.18 0.26 0.38 0.50 0.65 0.75 0.79 0.78 0.71 0.65 0.56 0.46 0.40 0.36 0.33 0.30 0.30 0.25 0.19 0.17 0.18 0.19 0.21 0.23 0.23 0.22 0.25 0.36 0.43 0.43 0.46 0.53 0.56 0.47 0.34 0.35 0.48 0.50
0.18 0.30 0.43 0.55 0.66 0.70 0.70 0.66 0.61 0.56 0.47 0.39 0.35 0.33 0.30 0.27 0.24 0.21 0.17 0.15 0.15 0.14 0.14 0.15 0.13 0.09 0.09 0.26 0.46 0.40 0.32 0.33 0.33 0.31 0.26 0.23 0.32 0.40
0.22 0.34 0.44 0.50 0.58 0.63 0.61 0.59 0.56 0.49 0.40 0.35 0.34 0.32 0.27 0.23 0.20 0.17 0.14 0.12 0.10 0.08 0.08 0.08 0.09 0.07 0.05 0.11 0.28 0.38 0.31 0.24 0.19 0.19 0.19 0.19 0.23 0.26
0.26 0.34 0.39 0.42 0.46 0.49 0.49 0.47 0.44 0.41 0.36 0.32 0.31 0.31 0.29 0.23 0.17 0.12 0.09 0.07 0.06 0.05 0.05 0.07 0.08 0.06 0.04 0.04 0.11 0.21 0.24 0.21 0.15 0.12 0.11 0.11 0.12 0.13
0.25 0.32 0.35 0.35 0.34 0.35 0.34 0.32 0.31 0.30 0.28 0.28 0.28 0.27 0.26 0.21 0.14 0.10 0.07 0.06 0.04 0.03 0.03 0.04 0.05 0.05 0.04 0.04 0.06 0.10 0.13 0.13 0.10 0.08 0.07 0.06 0.06 0.08
0.23 0.26 0.29 0.30 0.28 0.25 0.25 0.25 0.26 0.27 0.26 0.26 0.25 0.24 0.21 0.17 0.12 0.08 0.05 0.03 0.02 0.02 0.01 0.02 0.03 0.03 0.03 0.02 0.03 0.05 0.06 0.05 0.04 0.04 0.06 0.06 0.04 0.04